CW9703 Weather Reports


Display with metric or nautical units.
time (UTC)temp
F
wind
direction
speed
MPH
gust
MPH
rain 1hr
in
rain 24hr
in
rain mn
in
humidity
%
barometer
mb
20180221192444 36 341 3.0 3.0 0.00 0.81 0.45 74 1034.6
20180221184044 36 335 4.0 6.0 0.00 0.81 0.45 76 1034.3
20180221173443 34 320 4.0 8.0 0.00 0.81 0.45 82 1034.1
20180221171243 32 344 2.0 7.0 0.28 0.81 0.45 82 1034.0
20180221165042 32 321 5.0 6.0 0.28 0.81 0.45 87 1033.5
20180221162843 31 320 3.0 6.0 0.28 0.81 0.45 85 1032.9
20180221160641 31 306 3.0 7.0 0.00 0.53 0.17 87 1032.2
20180221154441 31 328 1.0 5.0 0.00 0.53 0.17 89 1031.6
20180221152241 31 355 3.0 6.0 0.00 0.53 0.17 91 1031.2
20180221143840 30 325 1.0 3.0 0.00 0.55 0.17 94 1030.5
20180221141640 30 329 2.0 5.0 0.00 0.59 0.17 95 1029.9
20180221133239 30 319 4.0 5.0 0.00 0.64 0.17 97 1028.7
20180221131039 30 326 5.0 5.0 0.00 0.66 0.17 97 1028.1
20180221124839 30 335 2.0 6.0 0.00 0.66 0.17 98 1027.5
20180221122639 32 332 1.0 4.0 0.00 0.66 0.17 98 1026.8
20180221120438 32 321 2.0 3.0 0.00 0.66 0.17 98 1025.8
20180221112038 32 323 2.0 5.0 0.03 0.66 0.17 98 1024.3
20180221103637 34 342 1.0 8.0 0.05 0.66 0.17 98 1023.8
20180221093037 35 278 2.0 4.0 0.05 0.62 0.12 98 1021.8
20180221090836 35 323 1.0 3.0 0.04 0.63 0.11 98 1021.8
20180221084636 35 321 2.0 3.0 0.02 0.61 0.09 98 1021.3
20180221080235 36 333 2.0 5.0 0.02 0.62 0.07 98 1020.5
20180221074035 37 313 3.0 4.0 0.02 0.64 0.07 98 1019.9
20180221071834 38 333 3.0 4.0 0.02 0.78 0.06 98 1019.8
20180221065635 40 296 3.0 6.0 0.04 1.07 0.05 98 1019.4
20180221050634 43 281 2.0 4.0 0.03 1.27 0.01 98 1017.0
20180221040032 40 202 5.0 6.0 0.04 1.26 1.24 98 1015.7
20180221031631 39 205 3.0 5.0 0.05 1.30 1.24 98 1014.8
20180221025431 38 162 4.0 4.0 0.05 1.32 1.23 98 1014.6
20180221021030 39 205 3.0 9.0 0.03 1.29 1.19 98 1014.2
20180221012630 39 148 6.0 8.0 0.05 1.28 1.18 98 1013.1
20180221004229 45 183 0.0 3.0 0.02 1.27 1.15 98 1013.8
20180220235829 44 252 4.0 8.0 0.12 1.38 1.13 98 1013.7
20180220220827 40 185 4.0 7.0 0.00 1.17 0.91 98 1012.3
20180220214627 39 169 3.0 5.0 0.00 1.17 0.91 98 1012.4
20180220212427 39 165 3.0 6.0 0.00 1.17 0.91 98 1012.2
20180220204026 40 167 6.0 7.0 0.00 1.17 0.91 98 1012.2
20180220201807 39 152 5.0 5.0 0.00 1.17 0.91 98 1012.4
20180220193358 39 122 3.0 3.0 0.00 1.17 0.91 98 1012.6